Location: Gull Harbor
(47.1000°N, 122.9000°W)
Time: 20:45:07
(UTC-07:00)

Envisat - Visible Passes

Search period start: 21 October 2019 00:00
Search period end: 31 October 2019 00:00
Orbit: 764 x 766 km, 98.1° (Epoch: 21 October)

Date Brightness Start Highest point End Pass type
(mag) Time Alt. Az. Time Alt. Az. Time Alt. Az.
21 Oct 6.1 06:59:45 10° NE 07:03:14 18° E 07:06:41 10° SE visible
21 Oct 4.6 19:55:43 10° SSW 20:00:22 36° W 20:05:04 10° NNW visible
22 Oct 3.2 19:18:23 10° S 19:23:28 76° WSW 19:28:34 10° NNW visible
23 Oct 3.1 18:41:50 10° SE 18:46:45 53° ENE 18:51:43 10° N visible
23 Oct 5.5 20:22:13 10° SW 20:26:06 22° W 20:30:01 10° NW visible
24 Oct 6.2 06:49:02 10° NE 06:51:49 15° E 06:54:37 10° ESE visible
24 Oct 4.2 19:44:12 10° S 19:49:02 45° W 19:53:56 10° NNW visible
25 Oct 3.0 19:07:07 10° SSE 19:12:12 88° ENE 19:17:19 10° NNW visible
25 Oct 6.1 20:49:39 10° WSW 20:51:55 13° W 20:54:13 10° WNW visible
26 Oct 3.3 18:30:45 10° SE 18:35:32 43° ENE 18:40:21 10° N visible
26 Oct 5.1 20:10:27 10° SSW 20:14:43 27° W 20:19:02 10° NW visible
27 Oct 6.5 06:38:42 10° ENE 06:40:24 12° E 06:42:07 10° ESE visible
27 Oct 3.7 19:32:45 10° S 19:37:44 56° W 19:42:45 10° NNW visible
28 Oct 2.9 18:55:54 10° SSE 19:00:56 72° ENE 19:06:02 10° N visible
28 Oct 5.9 20:37:23 10° SW 20:40:30 16° W 20:43:39 10° NW visible
29 Oct 6.0 07:02:33 10° NE 07:06:15 20° E 07:09:55 10° SE visible
29 Oct 4.7 19:58:49 10° SSW 20:03:22 33° W 20:07:58 10° NNW visible
30 Oct 3.3 19:21:23 10° S 19:26:27 70° WSW 19:31:32 10° NNW visible
